Printer-friendly version
Follow the MPC on Twitter Follow the MPC on Facebook The MPC blog
Minor Planet Center

MPEC 2002-W12 : COMET C/2002 T7 (LINEAR)

The following Minor Planet Electronic Circular may be linked-to from your own Web pages, but must not otherwise be redistributed electronically.

A form allowing access to any MPEC is at the bottom of this page.


Read MPEC 2002-W11 Read MPEC 2002-W13


M.P.E.C. 2002-W12                                Issued 2002 Nov. 18, 21:38 UT

     The Minor Planet Electronic Circulars contain information on unusual
         minor planets and routine data on comets.  They are published
   on behalf of Commission 20 of the International Astronomical Union by the
          Minor Planet Center, Smithsonian Astrophysical Observatory,
                          Cambridge, MA 02138, U.S.A.

             Prepared using the Tamkin Foundation Computer Network

                              MPC@CFA.HARVARD.EDU
          URL http://cfa-www.harvard.edu/iau/mpc.html  ISSN 1523-6714

                           COMET C/2002 T7 (LINEAR)

Additional Observations:
    CK02T070  C2002 10 31.27531 05 56 46.45 +28 10 14.5          17.2 T      921
    CK02T070  C2002 10 31.28961 05 56 46.25 +28 10 13.3          16.7 T      921
    CK02T070  C2002 10 31.32392 05 56 45.26 +28 10 09.2          16.4 T      921
    CK02T070  C2002 11 01.72247 05 55 58.91 +28 11 49.2                      349
    CK02T070  C2002 11 01.72400 05 55 58.80 +28 11 49.2                      349
    CK02T070  C2002 11 01.72553 05 55 58.76 +28 11 49.5                      349
    CK02T070  C2002 11 01.72706 05 55 58.71 +28 11 50.1          16.9 T      349
    CK02T070  C2002 11 06.61288 05 53 04.85 +28 17 17.1                      340
    CK02T070  C2002 11 06.61520 05 53 04.83 +28 17 16.7                      340
    CK02T070  C2002 11 06.61892 05 53 04.65 +28 17 17.5                      340
    CK02T070  C2002 11 06.62235 05 53 04.49 +28 17 18.3                      340
    CK02T070  C2002 11 06.62677 05 53 04.33 +28 17 18.7          16.9 T      340
    CK02T070  C2002 11 06.63601 05 53 03.92 +28 17 19.6                      379
    CK02T070  C2002 11 06.64079 05 53 03.79 +28 17 19.9                      379
    CK02T070  C2002 11 09.05301 05 51 30.40 +28 19 52.9                      118
    CK02T070  C2002 11 09.05799 05 51 30.21 +28 19 53.2                      118
    CK02T070  C2002 11 09.06019 05 51 30.11 +28 19 53.3          16.8 T      118
    CK02T070  C2002 11 09.66193 05 51 06.05 +28 20 31.5          16.7 T      349
    CK02T070  C2002 11 09.66591 05 51 05.92 +28 20 31.2                      349
    CK02T070  C2002 11 09.66859 05 51 05.82 +28 20 31.3                      349
    CK02T070  C2002 11 09.67122 05 51 05.70 +28 20 31.0                      349
    CK02T070  C2002 11 09.94454 05 50 54.48 +28 20 47.7          16.7 T      213
    CK02T070  C2002 11 10.78856 05 50 20.22 +28 21 40.4          17.8 N      379
    CK02T070  C2002 11 10.79013 05 50 20.21 +28 21 40.1          17.6 N      379
    CK02T070  C2002 11 10.90554 05 50 15.57 +28 21 47.1                      A46
    CK02T070  C2002 11 10.90690 05 50 15.54 +28 21 47.1                      A46
    CK02T070  C2002 11 10.93557 05 50 14.36 +28 21 49.0                      A46
    CK02T070  C2002 11 10.93692 05 50 14.33 +28 21 48.1                      A46
    CK02T070  C2002 11 11.01080 05 50 11.16 +28 21 54.6          16.6 T      A38
    CK02T070  C2002 11 11.02861 05 50 10.45 +28 21 55.1          17.1 T      A38
    CK02T070  C2002 11 11.17233 05 50 04.46 +28 22 03.4          16.6 N      J95
    CK02T070  C2002 11 11.18284 05 50 04.03 +28 22 04.0          16.8 N      J95
    CK02T070  C2002 11 11.41365 05 49 54.49 +28 22 17.8                      670
    CK02T070  C2002 11 11.54628 05 49 48.86 +28 22 25.3                      670
    CK02T070  C2002 11 12.73271 05 48 58.90 +28 23 36.1          16.9 T      360
    CK02T070  C2002 11 12.73627 05 48 58.75 +28 23 36.5                      360
    CK02T070  C2002 11 12.73980 05 48 58.60 +28 23 36.5                      360
    CK02T070  C2002 11 13.71017 05 48 16.85 +28 24 32.7                      349
    CK02T070  C2002 11 13.71691 05 48 16.57 +28 24 33.2                      349
    CK02T070  C2002 11 13.72137 05 48 16.34 +28 24 33.0                      349
    CK02T070  C2002 11 13.72486 05 48 16.25 +28 24 32.8          16.8 T      349
    CK02T070  C2002 11 14.27572 05 47 52.19 +28 25 04.3          16.6 T      785
    CK02T070  C2002 11 14.36659 05 47 48.15 +28 25 10.3          17.0 T      785
    CK02T070  C2002 11 16.92228 05 45 53.49 +28 27 25.7          16.1 T      213
    CK02T070  C2002 11 16.92545 05 45 53.22 +28 27 22.6          16.1 T      213

Observer details:
118 Modra.  Observers A. Galad, L. Kornos.  0.6-m f/5.5 reflector + CCD.
213 Observatorio Montcabre.  Observer R. Naves N.  Measurer M. Campas.  0.25-m
    f/3.3 Schmidt-Cassegrain + CCD.
340 Toyonaka.  Observer Y. Ezaki.  0.3-m f/6.0 reflector + CCD.
349 Ageo.  Observer K. Kadota.  0.18-m f/5.5 reflector + CCD, 0.25-m f/5.0
    reflector + CCD.
360 Kuma Kogen.  Observer A. Nakamura.  0.60-m f/6.0 Ritchey-Chretien + CCD.
379 Hamamatsu-Yuto.  Observer S. Wakuda.  0.25-m f/5.0 Schmidt-Cassegrain
    + CCD.
670 Camarillo.  Observer J. E. Rogers.  0.30-m f/6.7 Helin Telescope + CCD.
785 Fitz-Randolph Observatory, Princeton.  Observer J. Maffei.
    0.91-m reflector + CCD.
921 SW Institute for Space Research, Cloudcroft.  Observer A. Hale.  0.30-m
    Schmidt-Cassegrain + CCD.
A38 Campocatino Automated Telescope, Collepardo.  Observers G. Masi, F. Mallia,
    U. Tagliaferri.  Measurer G. Masi.  0.4-m f/8 Ritchey-Chretien + CCD.
A46 Lelekovice.  Observer K. Hornoch.  0.35-m f/4.7 reflector + CCD.
J95 Great Shefford.  Observer P. Birtwhistle.  0.3-m Schmidt-Cassegrain + CCD.

Orbital elements:
    C/2002 T7 (LINEAR)
T 2004 Apr. 23.6411 TT                                  MPC
q   0.615159             (2000.0)            P               Q
                   Peri.  157.7621      +0.4339643      -0.8378012
                   Node    94.8541      -0.8685392      -0.2913277
e   1.0            Incl.  160.5795      -0.2394049      -0.4617546
From 186 observations 2002 Oct. 12-Nov. 14.

Brian G. Marsden             (C) Copyright 2002 MPC           M.P.E.C. 2002-W12

Read MPEC 2002-W11 Read MPEC 2002-W13


MPEC number:

Enter an MPEC number in one of the following forms:

  • 1997-B01 (the full form)
  • J97B01 (the packed version of the full form)
  • B01 (the abbreviated form)

Valid HTML 4.01!